This is the latest recevied weather packets stored in our database for station/object K5MGY. If no packets are shown the sender has not sent any weather packets the latest 10 day(s).
| Time | Temp. | Humidity | Pressure | Rain* | Wind** | Luminosity | Snow |
|---|---|---|---|---|---|---|---|
| 1778003178 | 29.44° C | 63% | 1029.2 hPa | 0 mm | - | 471 W/m² | - |
| 1778002874 | 28.89° C | 64% | 1029.4 hPa | 0 mm | - | 632 W/m² | - |
| 1778002571 | 28.89° C | 64% | 1029.4 hPa | 0 mm | - | 270 W/m² | - |
| 1778002268 | 28.89° C | 63% | 1029.5 hPa | 0 mm | - | 374 W/m² | - |
| 1778001966 | 28.89° C | 64% | 1029.5 hPa | 0 mm | - | 361 W/m² | - |
| 1778001662 | 28.89° C | 64% | 1029.6 hPa | 0 mm | - | 257 W/m² | - |
| 1778001357 | 28.33° C | 65% | 1029.3 hPa | 0 mm | - | 248 W/m² | - |
| 1778001054 | 28.33° C | 65% | 1029.5 hPa | 0 mm | - | 308 W/m² | - |
| 1778000751 | 28.89° C | 64% | 1029.7 hPa | 0 mm | - | 270 W/m² | - |
| 1778000448 | 28.89° C | 65% | 1029.6 hPa | 0 mm | - | 312 W/m² | - |
| 1778000143 | 28.89° C | 64% | 1029.8 hPa | 0 mm | - | 308 W/m² | - |
| 1777999839 | 28.89° C | 63% | 1029.6 hPa | 0 mm | - | 301 W/m² | - |
| 1777999535 | 28.33° C | 66% | 1029.2 hPa | 0 mm | - | 469 W/m² | - |
| 1777999233 | 28.33° C | 65% | 1029.3 hPa | 0 mm | - | 442 W/m² | - |
| 1777998931 | 28.33° C | 64% | 1029.2 hPa | 0 mm | - | 538 W/m² | - |
| 1777998627 | 27.78° C | 65% | 1029.5 hPa | 0 mm | - | 510 W/m² | - |
| 1777998321 | 27.78° C | 67% | 1029.2 hPa | 0 mm | - | 230 W/m² | - |
| 1777998018 | 27.22° C | 68% | 1029.4 hPa | 0 mm | - | 511 W/m² | - |
| 1777997715 | 27.22° C | 69% | 1029.1 hPa | 0 mm | - | 456 W/m² | - |
| 1777997412 | 27.22° C | 69% | 1029.3 hPa | 0 mm | - | 398 W/m² | - |
| 1777997110 | 27.22° C | 69% | 1029.4 hPa | 0 mm | - | 348 W/m² | - |
| 1777996807 | 26.67° C | 72% | 1029.2 hPa | 0 mm | - | 423 W/m² | - |
| 1777996503 | 26.11° C | 71% | 1029.5 hPa | 0 mm | - | 289 W/m² | - |
| 1777996199 | 26.11° C | 73% | 1029.4 hPa | 0 mm | - | 233 W/m² | - |
| 1777995896 | 25.56° C | 73% | 1029.3 hPa | 0 mm | - | 227 W/m² | - |
* Rain latest hour (hover to see other rain measurements)
** Current wind speed in m/s (hover to see current wind gust speed)